Date String (YYYY-MM-DD hh:mm:ss) UTC,Instrument flags,Ambient pressure (hPa),Sample flow (lpm),Bypass flow (lpm),Sample temperature (°C),Ambient temperature (°C),ASC tube jacket temperature (°C),LED temperature (°C),Box temperature (°C),Sample RH (%),Span deviation,Mass concentration (μg/m³),Mass concentration (μg/m³),Mass concentration (μg/m³)
DateTimeUTC,F1_M11,P_M11,Q1_M11,Q2_M11,T1_M11,T2_M11,T3_M11,T4_M11,T5_M11,U1_M11,ZSPAN_M11,X0_M11,X2_M11,X1_M11
2021-11-05 00:00:00,,0825.2,5.00,0.00,30.1,25.8,00.0,39.2,31.4,10.1,0000.0,0011.81,0003.50,0002.22
2021-11-05 00:01:00,,0825.3,5.01,0.00,29.9,26.3,00.0,39.1,31.4,10.2,0000.0,0011.94,0003.51,0002.22
2021-11-05 00:02:00,,0825.2,4.99,0.00,29.9,26.8,00.0,39.1,31.4,10.4,0000.0,0012.96,0003.58,0002.24
2021-11-05 00:03:00,,0825.2,5.00,0.00,29.9,27.3,00.0,39.0,31.5,10.6,0000.0,0012.97,0003.64,0002.29
2021-11-05 00:04:00,,0825.2,5.01,0.00,29.9,27.7,00.0,39.0,31.6,10.7,0000.0,0012.44,0003.70,0002.34
2021-11-05 00:05:00,,0825.2,4.99,0.00,29.9,28.0,00.0,39.0,31.6,10.9,0000.0,0011.70,0003.75,0002.41
2021-11-05 00:06:00,,0825.2,5.00,0.00,29.9,28.2,00.0,39.0,31.7,11.0,0000.0,0011.81,0003.74,0002.48
2021-11-05 00:07:00,,0825.3,5.00,0.00,29.9,28.4,00.0,39.0,31.7,11.0,0000.0,0011.47,0003.76,0002.57
2021-11-05 00:08:00,,0825.2,5.01,0.00,29.9,28.6,00.0,39.0,31.7,11.0,0000.0,0011.14,0003.79,0002.66
2021-11-05 00:09:00,,0825.3,4.99,0.00,30.0,28.7,00.0,39.0,31.8,11.0,0000.0,0011.09,0003.88,0002.80
2021-11-05 00:10:00,,0825.3,5.00,0.00,30.0,28.8,00.0,39.0,31.8,11.0,0000.0,0011.53,0003.96,0002.92
2021-11-05 00:11:00,,0825.2,5.00,0.00,30.0,28.9,00.0,39.0,31.8,11.0,0000.0,0012.94,0004.08,0003.05
2021-11-05 00:12:00,,0825.3,4.99,0.00,30.1,28.9,00.0,39.0,31.9,11.1,0000.0,0013.28,0004.16,0003.17
2021-11-05 00:13:00,,0825.3,5.00,0.00,30.1,29.0,00.0,39.0,31.9,11.1,0000.0,0012.19,0004.22,0003.27
2021-11-05 00:14:00,,0825.3,5.00,0.00,30.1,29.0,00.0,39.0,32.0,11.0,0000.0,0012.15,0004.30,0003.36
2021-11-05 00:15:00,,0825.3,4.99,0.00,30.1,29.1,00.0,39.0,32.0,11.0,0000.0,0013.63,0004.40,0003.45
2021-11-05 00:16:00,,0825.3,5.01,0.00,30.1,29.1,00.0,39.0,32.0,10.9,0000.0,0013.83,0004.47,0003.52
2021-11-05 00:17:00,,0825.3,5.00,0.00,30.2,29.2,00.0,39.1,32.0,10.9,0000.0,0014.42,0004.53,0003.58
2021-11-05 00:18:00,,0825.3,4.99,0.00,30.2,29.2,00.0,39.1,32.0,10.9,0000.0,0015.23,0004.58,0003.63
2021-11-05 00:19:00,,0825.3,5.00,0.00,30.2,29.2,00.0,39.1,32.0,10.8,0000.0,0016.19,0004.59,0003.68
2021-11-05 00:20:00,,0825.3,4.99,0.00,30.2,29.3,00.0,39.1,32.1,10.8,0000.0,0016.45,0004.60,0003.71
2021-11-05 00:21:00,,0825.3,5.01,0.00,30.3,29.3,00.0,39.1,32.1,10.8,0000.0,0017.13,0004.63,0003.75
2021-11-05 00:22:00,,0825.3,5.00,0.00,30.3,29.4,00.0,39.1,32.1,10.7,0000.0,0016.00,0004.62,0003.78
2021-11-05 00:23:00,,0825.3,4.99,0.00,30.3,29.4,00.0,39.2,32.1,10.7,0000.0,0016.09,0004.58,0003.79
2021-11-05 00:24:00,,0825.3,5.00,0.00,30.3,29.4,00.0,39.2,32.2,10.6,0000.0,0016.77,0004.52,0003.76
2021-11-05 00:25:00,,0825.3,5.00,0.00,30.4,29.4,00.0,39.2,32.2,10.7,0000.0,0017.14,0004.50,0003.73
2021-11-05 00:26:00,,0825.2,5.01,0.00,30.4,29.5,00.0,39.2,32.2,10.6,0000.0,0015.96,0004.45,0003.70
2021-11-05 00:27:00,,0825.3,4.99,0.00,30.4,29.5,00.0,39.3,32.2,10.5,0000.0,0015.87,0004.41,0003.67
2021-11-05 00:28:00,,0825.2,5.00,0.00,30.4,29.5,00.0,39.3,32.2,10.4,0000.0,0015.11,0004.37,0003.63
2021-11-05 00:29:00,,0825.3,5.01,0.00,30.4,29.6,00.0,39.3,32.2,10.3,0000.0,0014.06,0004.32,0003.57
2021-11-05 00:30:00,,0825.2,5.00,0.00,30.5,29.6,00.0,39.3,32.3,10.3,0000.0,0013.11,0004.26,0003.51
2021-11-05 00:31:00,,0825.2,5.01,0.00,30.5,29.6,00.0,39.3,32.3,10.2,0000.0,0012.95,0004.19,0003.45
2021-11-05 00:32:00,,0825.2,5.01,0.00,30.5,29.6,00.0,39.4,32.3,10.4,0000.0,0011.91,0004.16,0003.40
2021-11-05 00:33:00,,0825.2,4.99,0.00,30.5,29.6,00.0,39.4,32.3,10.6,0000.0,0011.66,0004.15,0003.39
2021-11-05 00:34:00,,0825.2,5.00,0.00,30.5,29.7,00.0,39.4,32.3,10.5,0000.0,0011.20,0004.18,0003.40
2021-11-05 00:35:00,,0825.2,5.01,0.00,30.5,29.7,00.0,39.4,32.4,10.5,0000.0,0010.74,0004.23,0003.41
2021-11-05 00:36:00,,0825.2,5.00,0.00,30.5,28.6,00.0,39.4,32.1,10.5,0000.0,0010.63,0004.22,0003.41
2021-11-05 00:37:00,,0825.2,4.99,0.00,30.4,26.6,00.0,39.4,31.7,10.6,0000.0,0010.59,0004.22,0003.43
2021-11-05 00:38:00,,0825.2,5.00,0.00,30.3,26.4,00.0,39.4,31.6,10.6,0000.0,0011.29,0004.27,0003.47
2021-11-05 00:39:00,,0825.2,5.00,0.00,30.2,26.7,00.0,39.3,31.6,10.7,0000.0,0012.07,0004.31,0003.51
2021-11-05 00:40:00,,0825.2,5.01,0.00,30.1,27.2,00.0,39.2,31.6,10.7,0000.0,0012.37,0004.33,0003.55
2021-11-05 00:41:00,,0825.2,5.01,0.00,30.1,27.6,00.0,39.2,31.6,10.7,0000.0,0011.87,0004.37,0003.60
2021-11-05 00:42:00,,0825.2,4.99,0.00,30.0,27.9,00.0,39.2,31.7,10.8,0000.0,0011.55,0004.44,0003.66
2021-11-05 00:43:00,,0825.2,5.00,0.00,30.1,28.2,00.0,39.1,31.7,10.8,0000.0,0012.04,0004.48,0003.71
2021-11-05 00:44:00,,0825.2,5.01,0.00,30.1,28.4,00.0,39.1,31.8,10.8,0000.0,0012.48,0004.55,0003.73
2021-11-05 00:45:00,,0825.2,4.99,0.00,30.1,28.6,00.0,39.1,31.8,11.1,0000.0,0012.97,0004.60,0003.75
2021-11-05 00:46:00,,0825.2,5.01,0.00,30.1,28.7,00.0,39.1,31.8,11.0,0000.0,0014.04,0004.61,0003.77
2021-11-05 00:47:00,,0825.2,4.99,0.00,30.1,28.8,00.0,39.1,31.9,10.9,0000.0,0013.71,0004.61,0003.77
2021-11-05 00:48:00,,0825.2,5.01,0.00,30.1,28.9,00.0,39.1,31.9,10.9,0000.0,0013.33,0004.59,0003.76
2021-11-05 00:49:00,,0825.2,4.99,0.00,30.1,29.0,00.0,39.1,31.9,10.8,0000.0,0012.52,0004.61,0003.76
2021-11-05 00:50:00,,0825.2,5.00,0.00,30.2,29.0,00.0,39.1,31.9,10.7,0000.0,0011.89,0004.62,0003.75
2021-11-05 00:51:00,,0825.2,5.01,0.00,30.2,29.1,00.0,39.1,32.0,10.7,0000.0,0011.59,0004.60,0003.75
2021-11-05 00:52:00,,0825.2,5.01,0.00,30.2,29.1,00.0,39.1,32.0,10.7,0000.0,0011.72,0004.57,0003.72
2021-11-05 00:53:00,,0825.2,5.01,0.00,30.2,29.2,00.0,39.2,32.0,10.7,0000.0,0011.81,0004.56,0003.71
2021-11-05 00:54:00,,0825.2,4.99,0.00,30.2,29.2,00.0,39.2,32.0,10.7,0000.0,0012.61,0004.60,0003.69
2021-11-05 00:55:00,,0825.1,5.00,0.00,30.2,29.3,00.0,39.2,32.0,10.7,0000.0,0012.31,0004.53,0003.66
2021-11-05 00:56:00,,0825.2,5.00,0.00,30.2,29.3,00.0,39.2,32.0,10.7,0000.0,0013.01,0004.46,0003.63
2021-11-05 00:57:00,,0825.1,5.00,0.00,30.3,29.3,00.0,39.2,32.0,10.7,0000.0,0013.04,0004.42,0003.61
2021-11-05 00:58:00,,0825.1,5.00,0.00,30.3,29.3,00.0,39.2,32.0,10.7,0000.0,0013.06,0004.41,0003.62
2021-11-05 00:59:00,,0825.1,5.01,0.00,30.3,29.3,00.0,39.2,32.0,10.9,0000.0,0013.60,0004.44,0003.64
